Location: Amberg
(48.0613°N, 10.6820°E)
Time: 06:31:34
(UTC+00:00)

SJ 16-02 - Pass Details

Date: 18 November 2025
Orbit: 585 x 594 km, 75.0° (Epoch: 06 December)

Event Time Altitude Azimuth Distance (km) Brightness Sun altitude
Rises 18:16:49 0° 221° (SW) 2,826 5.3 -26.6°
Reaches altitude 10° 18:19:09 10° 230° (SW) 1,928 4.5 -27.0°
Maximum altitude 18:23:09 37° 298° (WNW) 933 2.6 -27.7°
Enters shadow 18:24:04 33° 327° (NNW) 1,009 2.6 -27.8°
